owner,sensor,date,latitude,longitude,vertical_datum,sea_water_practical_salinity,qcFlag 
DISL,ioos:station:DISL:CATA:1,2014-08-01T00:00:00Z,30.3085,-88.1395,2.103,20.81,1111122 
DISL,ioos:station:DISL:CATA:1,2014-08-01T00:30:00Z,30.3085,-88.1395,2.083,19.51,1111122 
DISL,ioos:station:DISL:CATA:1,2014-08-01T01:00:00Z,30.3085,-88.1395,2.078,18.16,1111122 
DISL,ioos:station:DISL:CATA:1,2014-08-01T01:30:00Z,30.3085,-88.1395,2.077,17.09,1111122 
DISL,ioos:station:DISL:CATA:1,2014-08-01T02:00:00Z,30.3085,-88.1395,2.07,15.95,1111122 
DISL,ioos:station:DISL:CATA:1,2014-08-01T02:30:00Z,30.3085,-88.1395,2.077,14.81,1111122 
DISL,ioos:station:DISL:CATA:1,2014-08-01T03:00:00Z,30.3085,-88.1395,2.081,15.26,1111122 
DISL,ioos:station:DISL:CATA:1,2014-08-01T03:30:00Z,30.3085,-88.1395,2.089,15.39,1111122 
DISL,ioos:station:DISL:CATA:1,2014-08-01T04:00:00Z,30.3085,-88.1395,2.095,14.65,1111122 
DISL,ioos:station:DISL:CATA:1,2014-08-01T04:30:00Z,30.3085,-88.1395,2.098,14.33,1111122 
DISL,ioos:station:DISL:CATA:1,2014-08-01T05:00:00Z,30.3085,-88.1395,2.099,14.97,1111122 
DISL,ioos:station:DISL:CATA:1,2014-08-01T05:30:00Z,30.3085,-88.1395,2.107,15.49,1111122 
DISL,ioos:station:DISL:CATA:1,2014-08-01T06:00:00Z,30.3085,-88.1395,2.126,16.56,1111122 
DISL,ioos:station:DISL:CATA:1,2014-08-01T06:30:00Z,30.3085,-88.1395,2.139,16.28,1111122 
DISL,ioos:station:DISL:CATA:1,2014-08-01T07:00:00Z,30.3085,-88.1395,2.145,17.54,1111122 
DISL,ioos:station:DISL:CATA:1,2014-08-01T07:30:00Z,30.3085,-88.1395,2.163,17.56,1111122 
DISL,ioos:station:DISL:CATA:1,2014-08-01T08:00:00Z,30.3085,-88.1395,2.169,17.01,1111122 
DISL,ioos:station:DISL:CATA:1,2014-08-01T08:30:00Z,30.3085,-88.1395,2.184,18.15,1111122 
DISL,ioos:station:DISL:CATA:1,2014-08-01T09:00:00Z,30.3085,-88.1395,2.182,18.21,1111122 
DISL,ioos:station:DISL:CATA:1,2014-08-01T09:30:00Z,30.3085,-88.1395,2.181,18.32,1111122 
DISL,ioos:station:DISL:CATA:1,2014-08-01T10:00:00Z,30.3085,-88.1395,2.193,18.56,1111122 
DISL,ioos:station:DISL:CATA:1,2014-08-01T10:30:00Z,30.3085,-88.1395,2.196,18.98,1111122 
DISL,ioos:station:DISL:CATA:1,2014-08-01T11:00:00Z,30.3085,-88.1395,2.184,18.89,1111122 
DISL,ioos:station:DISL:CATA:1,2014-08-01T11:30:00Z,30.3085,-88.1395,2.168,18.86,1111122 
DISL,ioos:station:DISL:CATA:1,2014-08-01T12:00:00Z,30.3085,-88.1395,2.165,18.69,1111122 
DISL,ioos:station:DISL:CATA:1,2014-08-01T12:30:00Z,30.3085,-88.1395,2.158,17.69,1111122 
DISL,ioos:station:DISL:CATA:1,2014-08-01T13:00:00Z,30.3085,-88.1395,2.16,15.05,1111122 
DISL,ioos:station:DISL:CATA:1,2014-08-01T13:30:00Z,30.3085,-88.1395,2.166,14.16,1111122 
DISL,ioos:station:DISL:CATA:1,2014-08-01T14:00:00Z,30.3085,-88.1395,2.169,14.05,1111122 
DISL,ioos:station:DISL:CATA:1,2014-08-01T14:30:00Z,30.3085,-88.1395,2.17,13.96,1111122 
DISL,ioos:station:DISL:CATA:1,2014-08-01T15:00:00Z,30.3085,-88.1395,2.18,13.98,1111122 
DISL,ioos:station:DISL:CATA:1,2014-08-01T15:30:00Z,30.3085,-88.1395,2.187,13.62,1111122 
DISL,ioos:station:DISL:CATA:1,2014-08-01T16:00:00Z,30.3085,-88.1395,2.184,13.49,1111122 
DISL,ioos:station:DISL:CATA:1,2014-08-01T16:30:00Z,30.3085,-88.1395,2.177,13.4,1111122 
DISL,ioos:station:DISL:CATA:1,2014-08-01T17:00:00Z,30.3085,-88.1395,2.171,13.35,1111122 
DISL,ioos:station:DISL:CATA:1,2014-08-01T17:30:00Z,30.3085,-88.1395,2.175,13.33,1111122 
DISL,ioos:station:DISL:CATA:1,2014-08-01T18:00:00Z,30.3085,-88.1395,2.18,13.11,1111122 
DISL,ioos:station:DISL:CATA:1,2014-08-01T18:30:00Z,30.3085,-88.1395,2.191,13.16,1111122 
DISL,ioos:station:DISL:CATA:1,2014-08-01T19:00:00Z,30.3085,-88.1395,2.189,13.3,1111122 
DISL,ioos:station:DISL:CATA:1,2014-08-01T19:30:00Z,30.3085,-88.1395,2.193,13.54,1111122 
DISL,ioos:station:DISL:CATA:1,2014-08-01T20:00:00Z,30.3085,-88.1395,2.183,14.04,1111122 
DISL,ioos:station:DISL:CATA:1,2014-08-01T20:30:00Z,30.3085,-88.1395,2.178,15.76,1111122 
DISL,ioos:station:DISL:CATA:1,2014-08-01T21:00:00Z,30.3085,-88.1395,2.162,19.12,1111122 
DISL,ioos:station:DISL:CATA:1,2014-08-01T21:30:00Z,30.3085,-88.1395,2.148,20.58,1111122 
DISL,ioos:station:DISL:CATA:1,2014-08-01T22:00:00Z,30.3085,-88.1395,2.146,20.85,1111122 
DISL,ioos:station:DISL:CATA:1,2014-08-01T22:30:00Z,30.3085,-88.1395,2.136,19.13,1111122 
DISL,ioos:station:DISL:CATA:1,2014-08-01T23:00:00Z,30.3085,-88.1395,2.123,20.93,1111122 
DISL,ioos:station:DISL:CATA:1,2014-08-01T23:30:00Z,30.3085,-88.1395,2.117,16.0,1111122 
DISL,ioos:station:DISL:CATA:1,2014-08-02T00:00:00Z,30.3085,-88.1395,2.103,15.58,1111122 
DISL,ioos:station:DISL:CATA:1,2014-08-02T00:30:00Z,30.3085,-88.1395,2.086,13.78,1111122 
DISL,ioos:station:DISL:CATA:1,2014-08-02T01:00:00Z,30.3085,-88.1395,2.071,13.03,1111122 
DISL,ioos:station:DISL:CATA:1,2014-08-02T01:30:00Z,30.3085,-88.1395,2.073,12.19,1111122 
DISL,ioos:station:DISL:CATA:1,2014-08-02T02:00:00Z,30.3085,-88.1395,2.065,12.01,1111122 
DISL,ioos:station:DISL:CATA:1,2014-08-02T02:30:00Z,30.3085,-88.1395,2.086,11.85,1111122 
DISL,ioos:station:DISL:CATA:1,2014-08-02T03:00:00Z,30.3085,-88.1395,2.115,11.74,1111122 
DISL,ioos:station:DISL:CATA:1,2014-08-02T03:30:00Z,30.3085,-88.1395,2.135,11.94,1111122 
DISL,ioos:station:DISL:CATA:1,2014-08-02T04:00:00Z,30.3085,-88.1395,2.148,11.99,1111122 
DISL,ioos:station:DISL:CATA:1,2014-08-02T04:30:00Z,30.3085,-88.1395,2.155,11.91,1111122 
DISL,ioos:station:DISL:CATA:1,2014-08-02T05:00:00Z,30.3085,-88.1395,2.16,11.99,1111122 
DISL,ioos:station:DISL:CATA:1,2014-08-02T05:30:00Z,30.3085,-88.1395,2.173,12.22,1111122 
DISL,ioos:station:DISL:CATA:1,2014-08-02T06:00:00Z,30.3085,-88.1395,2.18,13.23,1111122 
DISL,ioos:station:DISL:CATA:1,2014-08-02T06:30:00Z,30.3085,-88.1395,2.193,13.13,1111122 
DISL,ioos:station:DISL:CATA:1,2014-08-02T07:00:00Z,30.3085,-88.1395,2.206,14.72,1111122 
DISL,ioos:station:DISL:CATA:1,2014-08-02T07:30:00Z,30.3085,-88.1395,2.212,15.62,1111122 
DISL,ioos:station:DISL:CATA:1,2014-08-02T08:00:00Z,30.3085,-88.1395,2.222,16.73,1111122 
DISL,ioos:station:DISL:CATA:1,2014-08-02T08:30:00Z,30.3085,-88.1395,2.235,17.69,1111122 
DISL,ioos:station:DISL:CATA:1,2014-08-02T09:00:00Z,30.3085,-88.1395,2.243,17.99,1111122 
DISL,ioos:station:DISL:CATA:1,2014-08-02T09:30:00Z,30.3085,-88.1395,2.259,18.67,1111122 
DISL,ioos:station:DISL:CATA:1,2014-08-02T10:00:00Z,30.3085,-88.1395,2.248,19.1,1111122 
DISL,ioos:station:DISL:CATA:1,2014-08-02T10:30:00Z,30.3085,-88.1395,2.242,19.81,1111122 
DISL,ioos:station:DISL:CATA:1,2014-08-02T11:00:00Z,30.3085,-88.1395,2.236,20.38,1111122 
DISL,ioos:station:DISL:CATA:1,2014-08-02T11:30:00Z,30.3085,-88.1395,2.228,20.71,1111122 
DISL,ioos:station:DISL:CATA:1,2014-08-02T12:00:00Z,30.3085,-88.1395,2.221,21.19,1111122 
DISL,ioos:station:DISL:CATA:1,2014-08-02T12:30:00Z,30.3085,-88.1395,2.205,21.21,1111122 
DISL,ioos:station:DISL:CATA:1,2014-08-02T13:00:00Z,30.3085,-88.1395,2.198,19.65,1111122 
DISL,ioos:station:DISL:CATA:1,2014-08-02T13:30:00Z,30.3085,-88.1395,2.189,15.9,1111122 
DISL,ioos:station:DISL:CATA:1,2014-08-02T14:00:00Z,30.3085,-88.1395,2.166,14.1,1111122 
DISL,ioos:station:DISL:CATA:1,2014-08-02T14:30:00Z,30.3085,-88.1395,2.161,12.78,1111122 
DISL,ioos:station:DISL:CATA:1,2014-08-02T15:00:00Z,30.3085,-88.1395,2.159,12.98,1111122 
DISL,ioos:station:DISL:CATA:1,2014-08-02T15:30:00Z,30.3085,-88.1395,2.154,12.61,1111122 
DISL,ioos:station:DISL:CATA:1,2014-08-02T16:00:00Z,30.3085,-88.1395,2.153,12.49,1111122 
DISL,ioos:station:DISL:CATA:1,2014-08-02T16:30:00Z,30.3085,-88.1395,2.151,12.66,1111122 
DISL,ioos:station:DISL:CATA:1,2014-08-02T17:00:00Z,30.3085,-88.1395,2.13,12.76,1111122 
DISL,ioos:station:DISL:CATA:1,2014-08-02T17:30:00Z,30.3085,-88.1395,2.13,12.9,1111122 
DISL,ioos:station:DISL:CATA:1,2014-08-02T18:00:00Z,30.3085,-88.1395,2.134,12.9,1111122 
DISL,ioos:station:DISL:CATA:1,2014-08-02T18:30:00Z,30.3085,-88.1395,2.138,13.01,1111122 
DISL,ioos:station:DISL:CATA:1,2014-08-02T19:00:00Z,30.3085,-88.1395,2.13,12.82,1111122 
DISL,ioos:station:DISL:CATA:1,2014-08-02T19:30:00Z,30.3085,-88.1395,2.125,12.58,1111122 
DISL,ioos:station:DISL:CATA:1,2014-08-02T20:00:00Z,30.3085,-88.1395,2.148,12.41,1111122 
DISL,ioos:station:DISL:CATA:1,2014-08-02T20:30:00Z,30.3085,-88.1395,2.133,12.18,1111122 
DISL,ioos:station:DISL:CATA:1,2014-08-02T21:00:00Z,30.3085,-88.1395,2.148,12.21,1111122 
DISL,ioos:station:DISL:CATA:1,2014-08-02T21:30:00Z,30.3085,-88.1395,2.141,12.13,1111122 
DISL,ioos:station:DISL:CATA:1,2014-08-02T22:00:00Z,30.3085,-88.1395,2.15,13.24,1111122 
DISL,ioos:station:DISL:CATA:1,2014-08-02T22:30:00Z,30.3085,-88.1395,2.146,12.89,1111122 
DISL,ioos:station:DISL:CATA:1,2014-08-02T23:00:00Z,30.3085,-88.1395,2.126,19.36,1111122 
DISL,ioos:station:DISL:CATA:1,2014-08-02T23:30:00Z,30.3085,-88.1395,2.131,20.06,1111122 
DISL,ioos:station:DISL:CATA:1,2014-08-03T00:00:00Z,30.3085,-88.1395,2.134,20.62,1111122 
DISL,ioos:station:DISL:CATA:1,2014-08-03T00:30:00Z,30.3085,-88.1395,2.14,21.17,1111122 
DISL,ioos:station:DISL:CATA:1,2014-08-03T01:00:00Z,30.3085,-88.1395,2.141,21.03,1111122 
DISL,ioos:station:DISL:CATA:1,2014-08-03T01:30:00Z,30.3085,-88.1395,2.145,22.51,1111122 
DISL,ioos:station:DISL:CATA:1,2014-08-03T02:00:00Z,30.3085,-88.1395,2.162,17.88,1111122 
DISL,ioos:station:DISL:CATA:1,2014-08-03T02:30:00Z,30.3085,-88.1395,2.174,22.17,1111122 
DISL,ioos:station:DISL:CATA:1,2014-08-03T03:00:00Z,30.3085,-88.1395,2.173,13.13,1111122 
DISL,ioos:station:DISL:CATA:1,2014-08-03T03:30:00Z,30.3085,-88.1395,2.181,13.14,1111122 
DISL,ioos:station:DISL:CATA:1,2014-08-03T04:00:00Z,30.3085,-88.1395,2.167,20.81,1111122 
DISL,ioos:station:DISL:CATA:1,2014-08-03T04:30:00Z,30.3085,-88.1395,2.182,21.27,1111122 
DISL,ioos:station:DISL:CATA:1,2014-08-03T05:00:00Z,30.3085,-88.1395,2.203,21.41,1111122 
DISL,ioos:station:DISL:CATA:1,2014-08-03T05:30:00Z,30.3085,-88.1395,2.231,20.65,1111122 
DISL,ioos:station:DISL:CATA:1,2014-08-03T06:00:00Z,30.3085,-88.1395,2.243,24.06,1111122 
DISL,ioos:station:DISL:CATA:1,2014-08-03T06:30:00Z,30.3085,-88.1395,2.246,26.18,1111122 
DISL,ioos:station:DISL:CATA:1,2014-08-03T07:00:00Z,30.3085,-88.1395,2.253,26.64,1111122 
DISL,ioos:station:DISL:CATA:1,2014-08-03T07:30:00Z,30.3085,-88.1395,2.265,26.99,1111122 
DISL,ioos:station:DISL:CATA:1,2014-08-03T08:00:00Z,30.3085,-88.1395,2.292,27.12,1111122 
DISL,ioos:station:DISL:CATA:1,2014-08-03T08:30:00Z,30.3085,-88.1395,2.291,27.19,1111122 
DISL,ioos:station:DISL:CATA:1,2014-08-03T09:00:00Z,30.3085,-88.1395,2.291,27.18,1111122 
DISL,ioos:station:DISL:CATA:1,2014-08-03T09:30:00Z,30.3085,-88.1395,2.277,27.82,1111122 
DISL,ioos:station:DISL:CATA:1,2014-08-03T10:00:00Z,30.3085,-88.1395,2.27,28.38,1111122 
DISL,ioos:station:DISL:CATA:1,2014-08-03T10:30:00Z,30.3085,-88.1395,2.265,27.94,1111122 
DISL,ioos:station:DISL:CATA:1,2014-08-03T11:00:00Z,30.3085,-88.1395,2.253,27.98,1111122 
DISL,ioos:station:DISL:CATA:1,2014-08-03T11:30:00Z,30.3085,-88.1395,2.257,27.73,1111122 
DISL,ioos:station:DISL:CATA:1,2014-08-03T12:00:00Z,30.3085,-88.1395,2.264,27.91,1111122 
DISL,ioos:station:DISL:CATA:1,2014-08-03T12:30:00Z,30.3085,-88.1395,2.248,28.07,1111122 
DISL,ioos:station:DISL:CATA:1,2014-08-03T13:00:00Z,30.3085,-88.1395,2.249,19.31,1111122 
DISL,ioos:station:DISL:CATA:1,2014-08-03T13:30:00Z,30.3085,-88.1395,2.24,15.01,1111122 
DISL,ioos:station:DISL:CATA:1,2014-08-03T14:00:00Z,30.3085,-88.1395,2.216,14.66,1111122 
DISL,ioos:station:DISL:CATA:1,2014-08-03T14:30:00Z,30.3085,-88.1395,2.196,13.9,1111122 
DISL,ioos:station:DISL:CATA:1,2014-08-03T15:00:00Z,30.3085,-88.1395,2.16,13.82,1111122 
DISL,ioos:station:DISL:CATA:1,2014-08-03T15:30:00Z,30.3085,-88.1395,2.138,14.05,1111122 
DISL,ioos:station:DISL:CATA:1,2014-08-03T16:00:00Z,30.3085,-88.1395,2.111,13.7,1111122 
DISL,ioos:station:DISL:CATA:1,2014-08-03T16:30:00Z,30.3085,-88.1395,2.11,13.51,1111122 
DISL,ioos:station:DISL:CATA:1,2014-08-03T17:00:00Z,30.3085,-88.1395,2.106,13.39,1111122 
DISL,ioos:station:DISL:CATA:1,2014-08-03T17:30:00Z,30.3085,-88.1395,2.113,13.28,1111122 
DISL,ioos:station:DISL:CATA:1,2014-08-03T18:00:00Z,30.3085,-88.1395,2.119,13.2,1111122 
DISL,ioos:station:DISL:CATA:1,2014-08-03T18:30:00Z,30.3085,-88.1395,2.124,13.2,1111122 
DISL,ioos:station:DISL:CATA:1,2014-08-03T19:00:00Z,30.3085,-88.1395,2.132,13.03,1111122 
DISL,ioos:station:DISL:CATA:1,2014-08-03T19:30:00Z,30.3085,-88.1395,2.132,12.96,1111122 
DISL,ioos:station:DISL:CATA:1,2014-08-03T20:00:00Z,30.3085,-88.1395,2.12,12.91,1111122 
DISL,ioos:station:DISL:CATA:1,2014-08-03T20:30:00Z,30.3085,-88.1395,2.121,12.89,1111122 
DISL,ioos:station:DISL:CATA:1,2014-08-03T21:00:00Z,30.3085,-88.1395,2.106,12.86,1111122 
DISL,ioos:station:DISL:CATA:1,2014-08-03T21:30:00Z,30.3085,-88.1395,2.108,12.8,1111122 
DISL,ioos:station:DISL:CATA:1,2014-08-03T22:00:00Z,30.3085,-88.1395,2.106,13.07,1111122 
DISL,ioos:station:DISL:CATA:1,2014-08-03T22:30:00Z,30.3085,-88.1395,2.089,13.26,1111122 
DISL,ioos:station:DISL:CATA:1,2014-08-03T23:00:00Z,30.3085,-88.1395,2.108,13.52,1111122 
DISL,ioos:station:DISL:CATA:1,2014-08-03T23:30:00Z,30.3085,-88.1395,2.119,15.27,1111122 
DISL,ioos:station:DISL:CATA:1,2014-08-04T00:00:00Z,30.3085,-88.1395,2.117,16.1,1111122 
DISL,ioos:station:DISL:CATA:1,2014-08-04T00:30:00Z,30.3085,-88.1395,2.12,17.2,1111122 
DISL,ioos:station:DISL:CATA:1,2014-08-04T01:00:00Z,30.3085,-88.1395,2.132,16.95,1111122 
DISL,ioos:station:DISL:CATA:1,2014-08-04T01:30:00Z,30.3085,-88.1395,2.165,16.75,1111122 
DISL,ioos:station:DISL:CATA:1,2014-08-04T02:00:00Z,30.3085,-88.1395,2.179,15.78,1111122 
DISL,ioos:station:DISL:CATA:1,2014-08-04T02:30:00Z,30.3085,-88.1395,2.194,13.29,1111122 
DISL,ioos:station:DISL:CATA:1,2014-08-04T03:00:00Z,30.3085,-88.1395,2.178,13.64,1111122 
DISL,ioos:station:DISL:CATA:1,2014-08-04T03:30:00Z,30.3085,-88.1395,2.161,14.1,1111122 
DISL,ioos:station:DISL:CATA:1,2014-08-04T04:00:00Z,30.3085,-88.1395,2.182,17.46,1111122 
DISL,ioos:station:DISL:CATA:1,2014-08-04T04:30:00Z,30.3085,-88.1395,2.194,18.26,1111122 
DISL,ioos:station:DISL:CATA:1,2014-08-04T05:00:00Z,30.3085,-88.1395,2.25,19.68,1111122 
DISL,ioos:station:DISL:CATA:1,2014-08-04T05:30:00Z,30.3085,-88.1395,2.253,18.52,1111122 
DISL,ioos:station:DISL:CATA:1,2014-08-04T06:00:00Z,30.3085,-88.1395,2.274,19.77,1111122 
DISL,ioos:station:DISL:CATA:1,2014-08-04T06:30:00Z,30.3085,-88.1395,2.295,23.07,1111122 
DISL,ioos:station:DISL:CATA:1,2014-08-04T07:00:00Z,30.3085,-88.1395,2.32,26.81,1111122 
DISL,ioos:station:DISL:CATA:1,2014-08-04T07:30:00Z,30.3085,-88.1395,2.323,27.79,1111122 
DISL,ioos:station:DISL:CATA:1,2014-08-04T08:00:00Z,30.3085,-88.1395,2.309,27.51,1111122 
DISL,ioos:station:DISL:CATA:1,2014-08-04T08:30:00Z,30.3085,-88.1395,2.289,27.8,1111122 
DISL,ioos:station:DISL:CATA:1,2014-08-04T09:00:00Z,30.3085,-88.1395,2.313,28.04,1111122 
DISL,ioos:station:DISL:CATA:1,2014-08-04T09:30:00Z,30.3085,-88.1395,2.335,28.13,1111122 
DISL,ioos:station:DISL:CATA:1,2014-08-04T10:00:00Z,30.3085,-88.1395,2.348,28.28,1111122 
DISL,ioos:station:DISL:CATA:1,2014-08-04T10:30:00Z,30.3085,-88.1395,2.358,28.41,1111122 
DISL,ioos:station:DISL:CATA:1,2014-08-04T11:00:00Z,30.3085,-88.1395,2.359,28.4,1111122 
DISL,ioos:station:DISL:CATA:1,2014-08-04T11:30:00Z,30.3085,-88.1395,2.355,28.16,1111122 
DISL,ioos:station:DISL:CATA:1,2014-08-04T12:00:00Z,30.3085,-88.1395,2.316,28.42,1111122 
DISL,ioos:station:DISL:CATA:1,2014-08-04T12:30:00Z,30.3085,-88.1395,2.319,28.49,1111122 
DISL,ioos:station:DISL:CATA:1,2014-08-04T13:00:00Z,30.3085,-88.1395,2.305,26.0,1111122 
DISL,ioos:station:DISL:CATA:1,2014-08-04T13:30:00Z,30.3085,-88.1395,2.298,16.63,1111122 
DISL,ioos:station:DISL:CATA:1,2014-08-04T14:00:00Z,30.3085,-88.1395,2.267,14.33,1111122 
DISL,ioos:station:DISL:CATA:1,2014-08-04T14:30:00Z,30.3085,-88.1395,2.245,14.14,1111122 
DISL,ioos:station:DISL:CATA:1,2014-08-04T15:00:00Z,30.3085,-88.1395,2.234,14.18,1111122 
DISL,ioos:station:DISL:CATA:1,2014-08-04T15:30:00Z,30.3085,-88.1395,2.218,14.29,1111122 
DISL,ioos:station:DISL:CATA:1,2014-08-04T16:00:00Z,30.3085,-88.1395,2.184,14.04,1111122 
DISL,ioos:station:DISL:CATA:1,2014-08-04T16:30:00Z,30.3085,-88.1395,2.154,14.01,1111122 
DISL,ioos:station:DISL:CATA:1,2014-08-04T17:00:00Z,30.3085,-88.1395,2.123,14.05,1111122 
DISL,ioos:station:DISL:CATA:1,2014-08-04T17:30:00Z,30.3085,-88.1395,2.091,13.65,1111122 
DISL,ioos:station:DISL:CATA:1,2014-08-04T18:00:00Z,30.3085,-88.1395,2.097,13.63,1111122 
DISL,ioos:station:DISL:CATA:1,2014-08-04T18:30:00Z,30.3085,-88.1395,2.087,13.16,1111122 
DISL,ioos:station:DISL:CATA:1,2014-08-04T19:00:00Z,30.3085,-88.1395,2.078,13.41,1111122 
DISL,ioos:station:DISL:CATA:1,2014-08-04T19:30:00Z,30.3085,-88.1395,2.07,13.32,1111122 
DISL,ioos:station:DISL:CATA:1,2014-08-04T20:00:00Z,30.3085,-88.1395,2.072,13.6,1111122 
DISL,ioos:station:DISL:CATA:1,2014-08-04T20:30:00Z,30.3085,-88.1395,2.064,13.62,1111122 
DISL,ioos:station:DISL:CATA:1,2014-08-04T21:00:00Z,30.3085,-88.1395,2.041,13.72,1111122 
DISL,ioos:station:DISL:CATA:1,2014-08-04T21:30:00Z,30.3085,-88.1395,2.039,13.8,1111122 
DISL,ioos:station:DISL:CATA:1,2014-08-04T22:00:00Z,30.3085,-88.1395,2.051,14.13,1111122 
DISL,ioos:station:DISL:CATA:1,2014-08-04T22:30:00Z,30.3085,-88.1395,2.055,13.81,1111122 
DISL,ioos:station:DISL:CATA:1,2014-08-04T23:00:00Z,30.3085,-88.1395,2.07,13.66,1111122 
DISL,ioos:station:DISL:CATA:1,2014-08-04T23:30:00Z,30.3085,-88.1395,2.073,14.0,1111122 
DISL,ioos:station:DISL:CATA:1,2014-08-05T00:00:00Z,30.3085,-88.1395,2.092,12.94,1111122 
DISL,ioos:station:DISL:CATA:1,2014-08-05T00:30:00Z,30.3085,-88.1395,2.1,13.37,1111122 
DISL,ioos:station:DISL:CATA:1,2014-08-05T01:00:00Z,30.3085,-88.1395,2.119,13.54,1111122 
DISL,ioos:station:DISL:CATA:1,2014-08-05T01:30:00Z,30.3085,-88.1395,2.148,13.58,1111122 
DISL,ioos:station:DISL:CATA:1,2014-08-05T02:00:00Z,30.3085,-88.1395,2.114,13.64,1111122 
DISL,ioos:station:DISL:CATA:1,2014-08-05T02:30:00Z,30.3085,-88.1395,2.132,13.81,1111122 
DISL,ioos:station:DISL:CATA:1,2014-08-05T03:00:00Z,30.3085,-88.1395,2.17,13.93,1111122 
DISL,ioos:station:DISL:CATA:1,2014-08-05T03:30:00Z,30.3085,-88.1395,2.204,14.05,1111122 
DISL,ioos:station:DISL:CATA:1,2014-08-05T04:00:00Z,30.3085,-88.1395,2.21,14.27,1111122 
DISL,ioos:station:DISL:CATA:1,2014-08-05T04:30:00Z,30.3085,-88.1395,2.214,14.66,1111122 
DISL,ioos:station:DISL:CATA:1,2014-08-05T05:00:00Z,30.3085,-88.1395,2.219,16.22,1111122 
DISL,ioos:station:DISL:CATA:1,2014-08-05T05:30:00Z,30.3085,-88.1395,2.23,16.75,1111122 
DISL,ioos:station:DISL:CATA:1,2014-08-05T06:00:00Z,30.3085,-88.1395,2.271,16.9,1111122 
DISL,ioos:station:DISL:CATA:1,2014-08-05T06:30:00Z,30.3085,-88.1395,2.305,21.97,1111122 
DISL,ioos:station:DISL:CATA:1,2014-08-05T07:00:00Z,30.3085,-88.1395,2.328,23.28,1111122 
DISL,ioos:station:DISL:CATA:1,2014-08-05T07:30:00Z,30.3085,-88.1395,2.353,25.49,1111122 
DISL,ioos:station:DISL:CATA:1,2014-08-05T08:00:00Z,30.3085,-88.1395,2.368,24.55,1111122 
DISL,ioos:station:DISL:CATA:1,2014-08-05T08:30:00Z,30.3085,-88.1395,2.371,25.04,1111122 
DISL,ioos:station:DISL:CATA:1,2014-08-05T09:00:00Z,30.3085,-88.1395,2.405,26.46,1111122 
DISL,ioos:station:DISL:CATA:1,2014-08-05T09:30:00Z,30.3085,-88.1395,2.421,26.56,1111122 
DISL,ioos:station:DISL:CATA:1,2014-08-05T10:00:00Z,30.3085,-88.1395,2.419,27.11,1111122 
DISL,ioos:station:DISL:CATA:1,2014-08-05T10:30:00Z,30.3085,-88.1395,2.428,27.62,1111122 
DISL,ioos:station:DISL:CATA:1,2014-08-05T11:00:00Z,30.3085,-88.1395,2.417,27.85,1111122 
DISL,ioos:station:DISL:CATA:1,2014-08-05T11:30:00Z,30.3085,-88.1395,2.432,27.27,1111122 
DISL,ioos:station:DISL:CATA:1,2014-08-05T12:00:00Z,30.3085,-88.1395,2.41,27.14,1111122 
DISL,ioos:station:DISL:CATA:1,2014-08-05T12:30:00Z,30.3085,-88.1395,2.42,27.38,1111122 
DISL,ioos:station:DISL:CATA:1,2014-08-05T13:00:00Z,30.3085,-88.1395,2.391,27.46,1111122 
DISL,ioos:station:DISL:CATA:1,2014-08-05T13:30:00Z,30.3085,-88.1395,2.358,27.54,1111122 
DISL,ioos:station:DISL:CATA:1,2014-08-05T14:00:00Z,30.3085,-88.1395,2.334,27.91,1111122 
DISL,ioos:station:DISL:CATA:1,2014-08-05T14:30:00Z,30.3085,-88.1395,2.303,28.0,1111122 
DISL,ioos:station:DISL:CATA:1,2014-08-05T15:00:00Z,30.3085,-88.1395,2.274,27.77,1111122 
DISL,ioos:station:DISL:CATA:1,2014-08-05T15:30:00Z,30.3085,-88.1395,2.265,19.52,1111122 
DISL,ioos:station:DISL:CATA:1,2014-08-05T16:00:00Z,30.3085,-88.1395,2.235,16.48,1111122 
DISL,ioos:station:DISL:CATA:1,2014-08-05T16:30:00Z,30.3085,-88.1395,2.212,13.62,1111122 
DISL,ioos:station:DISL:CATA:1,2014-08-05T17:00:00Z,30.3085,-88.1395,2.178,13.13,1111122 
DISL,ioos:station:DISL:CATA:1,2014-08-05T17:30:00Z,30.3085,-88.1395,2.138,13.42,1111122 
DISL,ioos:station:DISL:CATA:1,2014-08-05T18:00:00Z,30.3085,-88.1395,2.096,13.5,1111122 
DISL,ioos:station:DISL:CATA:1,2014-08-05T18:30:00Z,30.3085,-88.1395,2.065,13.29,1111122 
DISL,ioos:station:DISL:CATA:1,2014-08-05T19:00:00Z,30.3085,-88.1395,2.04,13.1,1111122 
DISL,ioos:station:DISL:CATA:1,2014-08-05T19:30:00Z,30.3085,-88.1395,2.02,13.28,1111122 
DISL,ioos:station:DISL:CATA:1,2014-08-05T20:00:00Z,30.3085,-88.1395,2.001,13.23,1111122 
DISL,ioos:station:DISL:CATA:1,2014-08-05T20:30:00Z,30.3085,-88.1395,1.986,13.17,1111122 
DISL,ioos:station:DISL:CATA:1,2014-08-05T21:00:00Z,30.3085,-88.1395,1.975,13.15,1111122 
DISL,ioos:station:DISL:CATA:1,2014-08-05T21:30:00Z,30.3085,-88.1395,1.97,13.12,1111122 
DISL,ioos:station:DISL:CATA:1,2014-08-05T22:00:00Z,30.3085,-88.1395,1.962,13.04,1111122 
DISL,ioos:station:DISL:CATA:1,2014-08-05T22:30:00Z,30.3085,-88.1395,1.962,13.06,1111122 
DISL,ioos:station:DISL:CATA:1,2014-08-05T23:00:00Z,30.3085,-88.1395,1.962,13.07,1111122 
DISL,ioos:station:DISL:CATA:1,2014-08-05T23:30:00Z,30.3085,-88.1395,1.975,13.19,1111122 
DISL,ioos:station:DISL:CATA:1,2014-08-06T00:00:00Z,30.3085,-88.1395,1.983,13.41,1111122 
DISL,ioos:station:DISL:CATA:1,2014-08-06T00:30:00Z,30.3085,-88.1395,2.006,13.43,1111122 
DISL,ioos:station:DISL:CATA:1,2014-08-06T01:00:00Z,30.3085,-88.1395,2.018,13.2,1111122 
DISL,ioos:station:DISL:CATA:1,2014-08-06T01:30:00Z,30.3085,-88.1395,2.033,12.81,1111122 
DISL,ioos:station:DISL:CATA:1,2014-08-06T02:00:00Z,30.3085,-88.1395,2.051,12.94,1111122 
DISL,ioos:station:DISL:CATA:1,2014-08-06T02:30:00Z,30.3085,-88.1395,2.069,13.01,1111122 
DISL,ioos:station:DISL:CATA:1,2014-08-06T03:00:00Z,30.3085,-88.1395,2.104,13.01,1111122 
DISL,ioos:station:DISL:CATA:1,2014-08-06T03:30:00Z,30.3085,-88.1395,2.124,13.03,1111122 
DISL,ioos:station:DISL:CATA:1,2014-08-06T04:00:00Z,30.3085,-88.1395,2.139,13.0,1111122 
DISL,ioos:station:DISL:CATA:1,2014-08-06T04:30:00Z,30.3085,-88.1395,2.171,13.16,1111122 
DISL,ioos:station:DISL:CATA:1,2014-08-06T05:00:00Z,30.3085,-88.1395,2.175,13.57,1111122 
DISL,ioos:station:DISL:CATA:1,2014-08-06T05:30:00Z,30.3085,-88.1395,2.2,14.18,1111122 
DISL,ioos:station:DISL:CATA:1,2014-08-06T06:00:00Z,30.3085,-88.1395,2.22,15.24,1111122 
DISL,ioos:station:DISL:CATA:1,2014-08-06T06:30:00Z,30.3085,-88.1395,2.246,15.16,1111122 
DISL,ioos:station:DISL:CATA:1,2014-08-06T07:00:00Z,30.3085,-88.1395,2.279,15.16,1111122 
DISL,ioos:station:DISL:CATA:1,2014-08-06T07:30:00Z,30.3085,-88.1395,2.304,15.29,1111122 
DISL,ioos:station:DISL:CATA:1,2014-08-06T08:00:00Z,30.3085,-88.1395,2.331,16.17,1111122 
DISL,ioos:station:DISL:CATA:1,2014-08-06T08:30:00Z,30.3085,-88.1395,2.362,15.56,1111122 
DISL,ioos:station:DISL:CATA:1,2014-08-06T09:00:00Z,30.3085,-88.1395,2.383,17.42,1111122 
DISL,ioos:station:DISL:CATA:1,2014-08-06T09:30:00Z,30.3085,-88.1395,2.395,18.72,1111122 
DISL,ioos:station:DISL:CATA:1,2014-08-06T10:00:00Z,30.3085,-88.1395,2.401,19.8,1111122 
DISL,ioos:station:DISL:CATA:1,2014-08-06T10:30:00Z,30.3085,-88.1395,2.415,20.5,1111122 
DISL,ioos:station:DISL:CATA:1,2014-08-06T11:00:00Z,30.3085,-88.1395,2.429,21.41,1111122 
DISL,ioos:station:DISL:CATA:1,2014-08-06T11:30:00Z,30.3085,-88.1395,2.421,21.9,1111122 
DISL,ioos:station:DISL:CATA:1,2014-08-06T12:00:00Z,30.3085,-88.1395,2.416,23.36,1111122 
DISL,ioos:station:DISL:CATA:1,2014-08-06T12:30:00Z,30.3085,-88.1395,2.405,23.82,1111122 
DISL,ioos:station:DISL:CATA:1,2014-08-06T13:00:00Z,30.3085,-88.1395,2.396,24.09,1111122 
DISL,ioos:station:DISL:CATA:1,2014-08-06T13:30:00Z,30.3085,-88.1395,2.389,24.28,1111122 
DISL,ioos:station:DISL:CATA:1,2014-08-06T14:00:00Z,30.3085,-88.1395,2.377,24.33,1111122 